Regional Weather Roundup
Issued by NWS

Home | Current Version | Previous Version | Text Only | Print | Product List | Glossary Off
Versions: 1 2 3 4 5 6 7 8 9 10 11 12 13 14 15 16 17 18 19 20 21 22 23 24 25 26 27 28 29 30 31 32 33 34 35 36 37 38 39 40 41 42 43 44 45 46 47 48 49 50

000
ASUS43 KDMX 212207
RWRIA

WEATHER ROUNDUP FOR IOWA
NATIONAL WEATHER SERVICE DES MOINES IA
500 PM CDT MON JUL 21 2014

NOTE: "FAIR" INDICATES FEW OR NO CLOUDS BELOW 12,000 FEET WITH NO
SIGNIFICANT WEATHER AND/OR OBSTRUCTIONS TO VISIBILITY.

* - THESE STATIONS ARE NOT NWS STATIONS...THUS NOT UNDER NWS
QUALITY CONTROL.  THEY ALSO DO NOT REPORT WEATHER SUCH
AS PRECIPITATION OR FOG.

IAZ001>003-012>014-020>022-031>034-043>046-212300-
   NORTHWEST IOWA

CITY           SKY/WX    TMP DP  RH WIND       PRES   REMARKS
CARROLL *      PTSUNNY   88  79  74 S13G20    29.87S HX 102
CHEROKEE *     PTSUNNY   86  77  74 S8        29.85S HX  97
DENISON *      SUNNY     90  77  66 S13G20    29.84S HX 102
LE MARS *      SUNNY     90  77  66 S14G20    29.83S HX 102
ORANGE CITY *  SUNNY     88  75  66 S7        29.84S HX  97
SHELDON *      SUNNY     82  77  83 SE12      29.84S HX  91
SIOUX CITY     PTSUNNY   91  78  65 S10       29.81S HX 106
SPENCER        MOSUNNY   85  74  69 S13       29.86S HX  92
STORM LAKE *   PTSUNNY   86  81  84 S12       29.88S HX 102
$$

IAZ055>058-069>071-079>083-090>094-212300-
   SOUTHWEST IOWA

CITY           SKY/WX    TMP DP  RH WIND       PRES   REMARKS
ATLANTIC *     SUNNY     90  79  70 S13G20    29.87S HX 105
AUDUBON *      SUNNY     93  82  70 S15G22    29.89S HX 117
CLARINDA *     SUNNY     90  79  70 S15G21    29.90S HX 105
COUNCIL BLFS * SUNNY     95  77  55 SW18G25   29.85S HX 109
CRESTON *      SUNNY     90  77  66 S21G28    29.90S HX 102
HARLAN  *      MOSUNNY   90  79  70 S17       29.90R HX 105
LAMONI         SUNNY     88  76  67 S15G21    29.93F HX  99
RED OAK *      SUNNY     91  79  66 S17G26    29.87F HX 107
SHENANDOAH *   SUNNY     91  79  66 S14G22    29.88F HX 107
$$

IAZ047>049-059>061-072>074-084-212300-
   CENTRAL IOWA

CITY           SKY/WX    TMP DP  RH WIND       PRES   REMARKS
AMES           PTSUNNY   88  76  67 S14       29.88S HX  99
ANKENY *       SUNNY     90  77  66 S16G23    29.88S HX 102
CHARITON *     SUNNY     90  77  66 S20G26    29.93S HX 102
DES MOINES     MOSUNNY   92  76  59 S18G26    29.88F HX 104
GRINNELL*      SUNNY     88  75  66 S18G25    29.94R HX  97
KNOXVILLE *    SUNNY     90  75  62 S18       29.91S HX 100
MARSHALLTOWN   MOSUNNY   88  76  67 S18G28    29.89F HX  99
PELLA *        SUNNY     90  75  62 S18G24    29.93S HX 100
PERRY *        CLOUDY    88  77  70 S13G18    29.88S HX 100
$$

IAZ004>006-015-016-023>025-035-036-212300-
   NORTH CENTRAL IOWA

CITY           SKY/WX    TMP DP  RH WIND       PRES   REMARKS
ALGONA *       CLOUDY    86  77  74 S13G20    29.88S HX  97
CLARION *      CLOUDY    86  75  70 S13G20    29.89S HX  95
ESTHERVILLE    MOSUNNY   83  75  77 S14       29.87F HX  90
FORT DODGE *   CLOUDY    84  75  74 S8        29.89S HX  92
MASON CITY     CLOUDY    86  76  71 S13       29.91S HX  96
FOREST CITY *  CLOUDY    84  73  70 S12G17    29.90R HX  91
IOWA FALLS *   CLOUDY    84  75  74 SE13      29.92R HX  92
$$

IAZ007>011-017>019-026>030-037>042-050>054-066-212300-
   NORTHEAST IOWA

CITY           SKY/WX    TMP DP  RH WIND       PRES   REMARKS
CEDAR RAPIDS   SUNNY     85  72  65 S15       29.96F HX  91
CHARLES CITY * SUNNY     86  73  66 SE17G24   29.91S HX  93
DECORAH *      SUNNY     84  72  65 S10G20    29.95S HX  89
DUBUQUE        MOSUNNY   82  69  64 S12       30.01F HX  85
MONTICELLO *   PTSUNNY   84  72  65 SE12G20   29.98F HX  89
OELWEIN *      SUNNY     86  73  66 S18       29.95F HX  93
WATERLOO       SUNNY     88  73  61 SE18G29   29.89F HX  95
$$

IAZ064-065-067-068-078-212300-
   EAST CENTRAL IOWA

CITY           SKY/WX    TMP DP  RH WIND       PRES   REMARKS
DAVENPORT      SUNNY     84  69  60 S15       30.02S HX  88
IOWA CITY      SUNNY     86  74  67 S14       29.98F HX  94
MT. PLEASANT * SUNNY     88  68  51 S12G20    30.00S HX  91
MUSCATINE *    SUNNY     88  70  55 S15G21    29.99S HX  92
QUAD CITIES    SUNNY     85  69  58 S10G20    30.01S HX  89
$$

IAZ062-063-075>077-085>089-095>099-212300-
   SOUTHEAST IOWA

CITY           SKY/WX    TMP DP  RH WIND       PRES   REMARKS
BURLINGTON     SUNNY     85  69  58 S14       30.01F HX  89
FAIRFIELD *    SUNNY     88  70  55 S16G23    29.98S HX  92
FORT MADISON * SUNNY     88  72  58 S9        30.02S HX  94
KEOKUK *       SUNNY     86  70  58 S9G17     30.00S HX  90
OSKALOOSA *      N/A     86  75  70 S14       29.96S HX  95
CENTERVILLE *  SUNNY     86  77  74 S12       29.98S HX  97
OTTUMWA        SUNNY     87  75  67 S14G22    29.94S HX  96
WASHINGTON *   SUNNY     86  73  66 S16       29.98S HX  93
$$

ABBREVIATIONS USED IN REMARKS
   TC - TEMPERATURES IN CELSIUS
  WCI - WIND CHILL INDEX
   HX - HEAT INDEX
  VSB - VISIBILITY
$$



USA.gov is the U.S. government's official web portal to all federal, state and local government web resources and services.